EB1TK-13 Weather Reports


time (UTC)temp
C
wind
direction
speed
KPH
gust
KPH
rain 1hr
cm
rain 24hr
cm
rain mn
cm
humidity
%
barometer
mb
20260506220215 12 139 4.8 6.4 0.00 0.10 0.00 92 1013.7
20260506215216 12 0.0 0.0 0.00 0.10 0.10 91 1013.7
20260506214216 13 0.0 0.0 0.00 0.10 0.10 91 1013.6
20260506213216 13 0.0 0.0 0.00 0.10 0.10 91 1013.7
20260506212219 13 0.0 0.0 0.00 0.10 0.10 90 1013.7
20260506211217 13 0.0 0.0 0.00 0.10 0.10 90 1013.7
20260506210215 13 0.0 0.0 0.00 0.10 0.10 90 1013.8
20260506205215 13 36 1.6 3.2 0.00 0.10 0.10 89 1013.8
20260506204216 13 0.0 0.0 0.00 0.10 0.10 88 1013.7
20260506203216 13 0.0 0.0 0.00 0.10 0.10 87 1013.7
20260506202219 13 0.0 0.0 0.00 0.10 0.10 86 1013.6
20260506201217 13 0.0 0.0 0.00 0.10 0.10 86 1013.6
20260506200214 13 0.0 0.0 0.00 0.10 0.10 86 1013.5
20260506195215 13 0.0 0.0 0.00 0.10 0.10 86 1013.6
20260506194215 13 0.0 0.0 0.00 0.10 0.10 86 1013.5
20260506193216 13 0.0 0.0 0.00 0.10 0.10 86 1013.5
20260506192216 13 0.0 0.0 0.00 0.10 0.10 86 1013.5
20260506191216 13 36 1.6 3.2 0.00 0.15 0.10 86 1013.5
20260506190217 13 36 4.8 6.4 0.00 0.18 0.10 86 1013.4
20260506185215 13 35 4.8 6.4 0.00 0.23 0.10 85 1013.3
20260506184215 14 36 3.2 4.8 0.00 0.23 0.10 85 1013.4
20260506183215 14 41 6.4 9.7 0.00 0.23 0.10 85 1013.4
20260506182216 14 33 6.4 8.0 0.00 0.23 0.10 85 1013.4
20260506181216 14 36 8.0 9.7 0.00 0.23 0.10 85 1013.5
20260506180217 14 24 4.8 6.4 0.00 0.23 0.10 85 1013.4
20260506175217 14 8 8.0 11.3 0.00 0.23 0.10 84 1013.4
20260506174215 14 15 6.4 8.0 0.00 0.23 0.10 84 1013.5
20260506173215 14 20 9.7 12.9 0.00 0.23 0.10 85 1013.5
20260506172215 14 13 8.0 12.9 0.00 0.23 0.10 86 1013.6
20260506171216 14 13 8.0 12.9 0.00 0.23 0.10 86 1013.6
20260506170216 15 18 8.0 11.3 0.00 0.23 0.10 85 1013.7
20260506165217 15 355 4.8 8.0 0.00 0.23 0.10 83 1013.6
20260506164217 15 357 4.8 8.0 0.00 0.23 0.10 83 1013.5
20260506163215 15 4 6.4 11.3 0.00 0.23 0.10 82 1013.5
20260506162215 16 349 4.8 8.0 0.00 0.23 0.10 81 1013.3
20260506161218 16 5 8.0 12.9 0.00 0.23 0.10 80 1013.2
20260506160216 16 348 9.7 16.1 0.00 0.23 0.10 79 1013.3
20260506155216 16 6 4.8 8.0 0.00 0.23 0.10 80 1013.4
20260506154217 16 293 6.4 9.7 0.00 0.23 0.10 79 1013.4
20260506153217 16 4 6.4 12.9 0.00 0.23 0.10 80 1013.5
20260506152215 16 354 4.8 6.4 0.00 0.23 0.10 81 1013.6
20260506151215 16 306 8.0 14.5 0.00 0.23 0.10 79 1013.8
20260506150216 16 354 3.2 4.8 0.00 0.23 0.10 80 1013.8
20260506145216 16 345 6.4 12.9 0.00 0.23 0.10 79 1013.9
20260506144219 16 342 9.7 16.1 0.00 0.23 0.10 77 1013.9
20260506143217 16 342 9.7 14.5 0.00 0.23 0.10 76 1013.9
20260506142215 16 321 6.4 9.7 0.00 0.23 0.10 77 1014.0
20260506141215 16 278 12.9 16.1 0.00 0.23 0.10 78 1014.1
20260506140215 16 288 6.4 11.3 0.00 0.23 0.10 79 1014.1
20260506135216 16 324 8.0 16.1 0.00 0.23 0.10 79 1014.2
20260506134216 16 285 9.7 17.7 0.00 0.23 0.10 77 1014.4
20260506133217 16 252 8.0 14.5 0.00 0.23 0.10 80 1014.4
20260506132217 16 258 14.5 16.1 0.00 0.23 0.10 79 1014.4
20260506131215 15 296 11.3 19.3 0.00 0.23 0.10 79 1014.5
20260506130215 15 283 9.7 14.5 0.00 0.23 0.10 80 1014.4
20260506125215 15 270 11.3 22.5 0.00 0.23 0.10 81 1014.5
20260506124216 15 271 19.3 24.1 0.00 0.23 0.10 82 1014.5
20260506123216 15 271 14.5 19.3 0.00 0.23 0.10 84 1014.6
20260506122217 15 286 19.3 30.6 0.00 0.23 0.10 83 1014.6
20260506121217 15 267 24.1 32.2 0.00 0.23 0.10 83 1014.7
20260506120215 15 259 14.5 22.5 0.00 0.23 0.10 86 1014.6
20260506115215 15 277 14.5 20.9 0.00 0.23 0.10 84 1014.7
20260506114216 15 259 22.5 24.1 0.00 0.23 0.10 82 1014.7
20260506113216 15 272 16.1 24.1 0.00 0.25 0.10 83 1014.7
20260506112216 15 268 20.9 27.4 0.00 0.25 0.10 83 1014.7
20260506111217 15 279 16.1 20.9 0.00 0.25 0.10 83 1014.8
20260506110217 15 268 17.7 24.1 0.00 0.25 0.10 84 1014.8
20260506105215 15 272 14.5 20.9 0.00 0.25 0.10 82 1014.7
20260506104215 15 260 20.9 25.7 0.00 0.25 0.10 83 1014.7
20260506102216 15 263 19.3 25.7 0.00 0.25 0.10 83 1014.8
20260506101216 14 265 16.1 19.3 0.00 0.25 0.10 83 1014.9
20260506100217 14 267 20.9 29.0 0.00 0.25 0.10 82 1014.8
20260506095215 14 267 17.7 22.5 0.00 0.25 0.10 83 1014.8
20260506094215 14 256 14.5 19.3 0.00 0.25 0.10 82 1014.7
20260506093215 14 266 16.1 24.1 0.00 0.25 0.10 82 1014.7
20260506092216 14 240 12.9 19.3 0.00 0.25 0.10 82 1014.6
20260506091216 14 252 14.5 20.9 0.00 0.28 0.10 82 1014.5
20260506090217 14 248 19.3 25.7 0.00 0.30 0.10 84 1014.5
20260506085217 13 254 12.9 16.1 0.00 0.30 0.10 84 1014.6
20260506084215 13 272 12.9 19.3 0.00 0.33 0.10 84 1014.6
20260506083215 13 260 12.9 17.7 0.00 0.33 0.10 84 1014.5
20260506082216 13 256 9.7 14.5 0.00 0.33 0.10 85 1014.5
20260506081216 13 237 11.3 16.1 0.00 0.33 0.10 86 1014.5
20260506080216 13 259 14.5 17.7 0.00 0.33 0.10 87 1014.5
20260506073215 12 218 8.0 14.5 0.00 0.33 0.10 90 1014.5
20260506072215 12 227 8.0 12.9 0.00 0.33 0.10 89 1014.5
20260506071215 12 237 12.9 17.7 0.00 0.33 0.10 89 1014.5
20260506070216 12 239 11.3 16.1 0.00 0.33 0.10 87 1014.5
20260506062215 12 243 9.7 11.3 0.00 0.33 0.10 86 1014.2
20260506061215 11 227 11.3 14.5 0.00 0.33 0.10 87 1014.2
20260506060215 11 235 9.7 12.9 0.00 0.33 0.10 88 1014.2
20260506051215 11 243 9.7 17.7 0.00 0.33 0.10 88 1013.9
20260506050215 11 231 8.0 14.5 0.00 0.33 0.10 89 1013.9
20260506044216 11 238 9.7 12.9 0.00 0.33 0.10 90 1013.8
20260506043216 11 234 11.3 14.5 0.00 0.33 0.10 91 1013.8
20260506042217 11 225 9.7 12.9 0.00 0.33 0.10 91 1013.9
20260506041215 11 230 8.0 11.3 0.00 0.33 0.10 91 1014.0
20260506040215 11 231 8.0 11.3 0.00 0.33 0.10 91 1014.1
20260506035215 11 228 8.0 11.3 0.00 0.33 0.10 90 1014.2
20260506034216 11 242 11.3 16.1 0.00 0.33 0.10 90 1014.2
20260506033216 11 240 9.7 12.9 0.00 0.33 0.10 89 1014.2
20260506032216 11 237 14.5 20.9 0.00 0.33 0.10 90 1014.3
20260506031216 11 235 9.7 14.5 0.00 0.33 0.10 90 1014.2
20260506030214 11 245 14.5 19.3 0.00 0.33 0.10 91 1014.2
20260506024215 11 231 9.7 14.5 0.05 0.33 0.10 91 1014.1
20260506023216 11 228 9.7 12.9 0.08 0.33 0.10 91 1014.1
20260506022215 11 235 11.3 16.1 0.08 0.33 0.10 91 1014.2
20260506021215 11 233 11.3 16.1 0.08 0.33 0.10 91 1014.3
20260506020215 11 236 9.7 12.9 0.08 0.33 0.10 92 1014.3
20260506015215 11 236 9.7 12.9 0.08 0.33 0.10 91 1014.4
20260506014215 11 246 8.0 12.9 0.05 0.28 0.05 90 1014.5
20260506013215 11 247 9.7 14.5 0.00 0.23 0.03 89 1014.5
20260506012216 11 229 8.0 12.9 0.00 0.23 0.03 89 1014.5
20260506011216 11 247 11.3 14.5 0.00 0.23 0.03 90 1014.6
20260506010216 11 233 11.3 16.1 0.00 0.23 0.03 90 1014.6
20260506005217 11 229 9.7 12.9 0.00 0.23 0.03 90 1014.8
20260506004215 11 249 9.7 12.9 0.03 0.23 0.03 90 1014.9
20260506003215 11 243 9.7 12.9 0.03 0.23 0.03 91 1015.0
20260506002216 11 244 9.7 12.9 0.03 0.23 0.03 90 1015.1
20260506001216 11 232 12.9 14.5 0.03 0.23 0.03 89 1015.0
20260506000219 12 238 16.1 24.1 0.03 0.23 0.03 89 1015.1
20260505235217 11 245 9.7 14.5 0.03 0.23 0.03 90 1015.3
20260505234217 11 240 9.7 12.9 0.00 0.23 0.00 90 1015.2
20260505233215 11 243 8.0 11.3 0.00 0.23 0.00 90 1015.3
20260505232220 11 247 8.0 9.7 0.00 0.23 0.00 90 1015.3
20260505231216 11 238 9.7 12.9 0.00 0.23 0.00 90 1015.2
20260505230216 12 242 11.3 14.5 0.00 0.23 0.00 91 1015.2
20260505225216 12 243 8.0 12.9 0.00 0.23 0.00 91 1015.4
20260505224217 12 229 6.4 8.0 0.00 0.23 0.00 91 1015.4
20260505223217 12 241 8.0 11.3 0.00 0.23 0.00 90 1015.4
20260505222215 12 248 9.7 12.9 0.00 0.23 0.00 91 1015.5
20260505221215 12 239 9.7 12.9 0.00 0.23 0.00 90 1015.4